EW4347 Weather Reports


Display with metric or nautical units.
time (UTC)temp
F
wind
direction
speed
MPH
gust
MPH
rain 1hr
in
rain 24hr
in
rain mn
in
humidity
%
barometer
mb
20190220160651 19 291 0.0 6.0 0.00 0.00 0.00 44 1033.6
20190220160150 19 296 1.0 6.0 0.00 0.00 0.00 44 1033.8
20190220155649 19 245 0.0 2.0 0.00 0.00 0.00 44 1033.9
20190220155148 18 258 0.0 8.0 0.00 0.00 0.00 44 1033.9
20190220154648 18 283 2.0 8.0 0.00 0.00 0.00 44 1034.0
20190220154148 19 237 0.0 10.0 0.00 0.00 0.00 45 1034.2
20190220153647 18 305 2.0 16.0 0.00 0.00 0.00 45 1034.3
20190220153147 18 248 4.0 16.0 0.00 0.00 0.00 46 1034.4
20190220152646 18 274 0.0 14.0 0.00 0.00 0.00 45 1034.4
20190220152145 17 307 1.0 10.0 0.00 0.00 0.00 46 1034.5
20190220151645 17 295 0.0 9.0 0.00 0.00 0.00 47 1034.6
20190220151144 17 258 0.0 5.0 0.00 0.00 0.00 48 1034.7
20190220150643 16 222 0.0 9.0 0.00 0.00 0.00 49 1034.8
20190220150142 16 259 0.0 9.0 0.00 0.00 0.00 50 1034.8
20190220145642 16 279 0.0 11.0 0.00 0.00 0.00 50 1034.9
20190220145141 15 291 0.0 11.0 0.00 0.00 0.00 50 1034.9
20190220144641 15 232 0.0 3.0 0.00 0.00 0.00 51 1034.9
20190220144140 15 247 0.0 3.0 0.00 0.00 0.00 52 1035.0
20190220143639 14 243 0.0 2.0 0.00 0.00 0.00 53 1035.0
20190220143139 14 278 0.0 1.0 0.00 0.00 0.00 54 1034.9
20190220142637 13 244 0.0 1.0 0.00 0.00 0.00 55 1034.8
20190220142137 13 237 0.0 1.0 0.00 0.00 0.00 56 1035.0
20190220141637 12 272 0.0 2.0 0.00 0.00 0.00 57 1035.1
20190220141136 11 228 0.0 3.0 0.00 0.00 0.00 58 1035.2
20190220140636 11 228 0.0 3.0 0.00 0.00 0.00 59 1035.1
20190220140135 11 227 0.0 0.0 0.00 0.00 0.00 59 1035.0
20190220135635 10 233 0.0 0.0 0.00 0.00 0.00 61 1035.0
20190220135133 10 254 0.0 0.0 0.00 0.00 0.00 61 1035.0
20190220134633 9 260 0.0 0.0 0.00 0.00 0.00 63 1035.1
20190220134132 9 273 0.0 0.0 0.00 0.00 0.00 64 1035.4
20190220133632 8 239 0.0 0.0 0.00 0.00 0.00 64 1035.4
20190220133131 7 232 0.0 0.0 0.00 0.00 0.00 65 1035.4
20190220132631 7 245 0.0 0.0 0.00 0.00 0.00 66 1035.4
20190220132130 6 239 0.0 0.0 0.00 0.00 0.00 69 1035.1
20190220131629 5 251 0.0 0.0 0.00 0.00 0.00 71 1035.0
20190220131129 3 255 0.0 0.0 0.00 0.00 0.00 73 1034.7
20190220130628 2 238 0.0 0.0 0.00 0.00 0.00 72 1034.5
20190220130128 1 228 0.0 0.0 0.00 0.00 0.00 70 1034.4
20190220125627 0 214 0.0 0.0 0.00 0.00 0.00 71 1034.5
20190220125125 0 214 0.0 0.0 0.00 0.00 0.00 73 1034.3
20190220124624 -1 214 0.0 0.0 0.00 0.00 0.00 73 1034.0
20190220124124 -1 214 0.0 0.0 0.00 0.00 0.00 75 1034.0
20190220123623 -2 214 0.0 0.0 0.00 0.00 0.00 76 1034.0
20190220123127 -2 214 0.0 0.0 0.00 0.00 0.00 76 1034.0
20190220123121 -3 214 0.0 0.0 0.00 0.00 0.00 76 1034.0
20190220122619 -3 214 0.0 0.0 0.00 0.00 0.00 76 1034.0
20190220122118 -4 214 0.0 0.0 0.00 0.00 0.00 76 1034.0
20190220121618 -3 214 0.0 0.0 0.00 0.00 0.00 79 1034.0
20190220121543 -2 214 0.0 0.0 0.00 0.00 0.00 80 1034.0
20190220121117 -3 214 0.0 0.0 0.00 0.00 0.00 81 1033.9
20190220120616 -4 214 0.0 0.0 0.00 0.00 0.00 82 1034.1
20190220120116 -5 212 0.0 0.0 0.00 0.00 0.00 83 1034.1
20190220115616 -6 217 0.0 0.0 0.00 0.00 0.00 82 1034.0
20190220115114 -7 350 0.0 0.0 0.00 0.00 0.00 80 1034.0
20190220114614 -7 351 0.0 0.0 0.00 0.00 0.00 80 1034.0
20190220114113 -7 351 0.0 0.0 0.00 0.00 0.00 79 1034.0
20190220113612 -6 351 0.0 0.0 0.00 0.00 0.00 80 1034.0
20190220113111 -6 351 0.0 0.0 0.00 0.00 0.00 80 1034.1
20190220112612 -6 351 0.0 0.0 0.00 0.00 0.00 80 1034.1
20190220112111 -6 354 0.0 0.0 0.00 0.00 0.00 79 1034.0
20190220111611 -5 329 0.0 0.0 0.00 0.00 0.00 79 1034.0
20190220111110 -5 329 0.0 0.0 0.00 0.00 0.00 79 1034.0
20190220110609 -4 329 0.0 0.0 0.00 0.00 0.00 80 1034.0
20190220110109 -5 329 0.0 0.0 0.00 0.00 0.00 80 1033.8
20190220105607 -5 334 0.0 0.0 0.00 0.00 0.00 80 1033.8
20190220105107 -5 334 0.0 0.0 0.00 0.00 0.00 79 1033.6
20190220104607 -5 334 0.0 0.0 0.00 0.00 0.00 78 1033.6
20190220104106 -5 334 0.0 0.0 0.00 0.00 0.00 78 1033.7
20190220103605 -5 334 0.0 0.0 0.00 0.00 0.00 77 1033.7
20190220103104 -4 307 0.0 0.0 0.00 0.00 0.00 77 1033.7
20190220102604 -3 306 0.0 0.0 0.00 0.00 0.00 77 1033.7
20190220102104 -2 306 0.0 0.0 0.00 0.00 0.00 79 1033.7
20190220101603 -2 306 0.0 0.0 0.00 0.00 0.00 80 1033.6
20190220101103 -3 306 0.0 0.0 0.00 0.00 0.00 80 1033.6
20190220100602 -3 306 0.0 0.0 0.00 0.00 0.00 80 1033.7
20190220100102 -3 306 0.0 0.0 0.00 0.00 0.00 80 1033.6
20190220095602 -4 306 0.0 0.0 0.00 0.00 0.00 79 1033.6
20190220095100 -4 306 0.0 0.0 0.00 0.00 0.00 78 1033.6
20190220094559 -3 306 0.0 0.0 0.00 0.00 0.00 78 1033.7
20190220094059 -3 306 0.0 0.0 0.00 0.00 0.00 77 1033.7
20190220093558 -3 306 0.0 0.0 0.00 0.00 0.00 76 1033.7
20190220093056 -3 306 0.0 0.0 0.00 0.00 0.00 75 1033.6
20190220092555 -2 306 0.0 0.0 0.00 0.00 0.00 75 1033.6
20190220092055 -2 306 0.0 0.0 0.00 0.00 0.00 76 1033.4
20190220091554 -1 306 0.0 0.0 0.00 0.00 0.00 76 1033.2
20190220091054 -1 306 0.0 0.0 0.00 0.00 0.00 75 1033.5
20190220090553 -1 306 0.0 0.0 0.00 0.00 0.00 74 1033.4
20190220090053 -1 306 0.0 0.0 0.00 0.00 0.00 73 1033.3
20190220085553 0 306 0.0 0.0 0.00 0.00 0.00 74 1033.4
20190220085052 0 306 0.0 0.0 0.00 0.00 0.00 71 1033.4
20190220084552 2 306 0.0 0.0 0.00 0.00 0.00 72 1033.4
20190220084051 2 306 0.0 0.0 0.00 0.00 0.00 74 1033.4
20190220083550 2 307 0.0 0.0 0.00 0.00 0.00 74 1033.3
20190220083129 2 272 0.0 0.0 0.00 0.00 0.00 73 1033.4
20190220083049 2 272 0.0 0.0 0.00 0.00 0.00 73 1033.4
20190220082549 3 272 0.0 0.0 0.00 0.00 0.00 72 1033.4
20190220082047 3 269 0.0 0.0 0.00 0.00 0.00 71 1033.4
20190220081606 3 269 0.0 0.0 0.00 0.00 0.00 71 1033.4
20190220081547 3 269 0.0 0.0 0.00 0.00 0.00 71 1033.4
20190220081046 3 270 0.0 0.0 0.00 0.00 0.00 71 1033.5
20190220080546 3 264 0.0 0.0 0.00 0.00 0.00 71 1033.4
20190220080044 3 266 0.0 0.0 0.00 0.00 0.00 71 1033.3
20190220080028 3 266 0.0 0.0 0.00 0.00 0.00 71 1033.4
20190220075544 3 261 0.0 0.0 0.00 0.00 0.00 71 1033.3
20190220075044 3 270 0.0 0.0 0.00 0.00 0.00 70 1033.3
20190220074543 3 273 0.0 0.0 0.00 0.00 0.00 70 1033.3
20190220074043 3 264 0.0 1.0 0.00 0.00 0.00 70 1033.6
20190220073543 3 246 0.0 1.0 0.00 0.00 0.00 70 1033.5
20190220073041 3 268 0.0 0.0 0.00 0.00 0.00 70 1033.5
20190220072541 3 263 0.0 0.0 0.00 0.00 0.00 70 1033.4
20190220072041 3 266 0.0 0.0 0.00 0.00 0.00 70 1033.1
20190220071540 3 260 0.0 0.0 0.00 0.00 0.00 70 1033.4
20190220071039 2 251 0.0 0.0 0.00 0.00 0.00 71 1033.5
20190220070539 2 248 0.0 0.0 0.00 0.00 0.00 71 1033.2
20190220070038 2 275 0.0 0.0 0.00 0.00 0.00 71 1033.1
20190220065537 2 255 0.0 0.0 0.00 0.00 0.00 68 1033.0
20190220065037 3 257 0.0 0.0 0.00 0.00 0.00 68 1033.1
20190220064536 3 258 0.0 0.0 0.00 0.00 0.00 70 1033.1
20190220064035 2 264 0.0 0.0 0.00 0.00 0.00 68 1033.0
20190220063535 3 264 0.0 0.0 0.00 0.00 0.00 67 1032.9
20190220063035 4 264 0.0 0.0 0.00 0.00 0.00 68 1032.8
20190220062534 3 268 0.0 0.0 0.00 0.00 0.00 69 1032.8
20190220062033 3 241 0.0 0.0 0.00 0.00 0.00 68 1032.9
20190220061532 3 241 0.0 0.0 0.00 0.00 0.00 66 1032.8
20190220061031 3 242 0.0 0.0 0.00 0.00 0.00 67 1032.7
20190220060531 3 250 0.0 0.0 0.00 0.00 0.00 68 1032.8
20190220060030 3 210 0.0 0.0 0.00 0.00 0.00 70 1032.8
20190220055529 1 216 0.0 0.0 0.00 0.00 0.00 71 1032.8
20190220055029 1 267 0.0 0.0 0.00 0.00 0.00 71 1032.9
20190220054529 1 268 0.0 0.0 0.00 0.00 0.00 72 1032.8
20190220054027 0 312 0.0 0.0 0.00 0.00 0.00 71 1032.7
20190220053527 0 313 0.0 0.0 0.00 0.00 0.00 70 1032.7
20190220053150 1 313 0.0 0.0 0.00 0.00 0.00 68 1032.7
20190220053026 1 313 0.0 0.0 0.00 0.00 0.00 68 1032.7
20190220052525 2 315 0.0 1.0 0.00 0.00 0.00 69 1032.7
20190220052025 2 315 0.0 1.0 0.00 0.00 0.00 70 1032.8
20190220051637 1 316 0.0 0.0 0.00 0.00 0.00 74 1032.7
20190220051524 1 316 0.0 0.0 0.00 0.00 0.00 74 1032.7
20190220051023 -1 305 0.0 0.0 0.00 0.00 0.00 74 1032.7
20190220050523 -1 310 0.0 0.0 0.00 0.00 0.00 73 1032.6
20190220050143 0 278 0.0 0.0 0.00 0.00 0.00 74 1032.6
20190220050022 -1 278 0.0 0.0 0.00 0.00 0.00 74 1032.6
20190220045521 -1 278 0.0 0.0 0.00 0.00 0.00 72 1032.6
20190220045020 0 278 0.0 0.0 0.00 0.00 0.00 72 1032.4
20190220044608 0 278 0.0 0.0 0.00 0.00 0.00 72 1032.5
20190220044520 0 278 0.0 0.0 0.00 0.00 0.00 72 1032.5
20190220044019 0 278 0.0 0.0 0.00 0.00 0.00 72 1032.7
20190220043518 0 278 0.0 0.0 0.00 0.00 0.00 72 1032.9
20190220043018 0 278 0.0 0.0 0.00 0.00 0.00 71 1032.9
20190220043013 1 278 0.0 0.0 0.00 0.00 0.00 71 1032.9
20190220042517 1 278 0.0 0.0 0.00 0.00 0.00 70 1032.9
20190220042017 1 278 0.0 0.0 0.00 0.00 0.00 69 1032.8
20190220041516 2 278 0.0 0.0 0.00 0.00 0.00 69 1032.7
20190220041016 2 278 0.0 0.0 0.00 0.00 0.00 69 1032.7
20190220040516 2 280 0.0 0.0 0.00 0.00 0.00 69 1032.6
20190220040015 2 221 0.0 0.0 0.00 0.00 0.00 70 1032.5
20190220035515 2 220 0.0 0.0 0.00 0.00 0.00 67 1032.6
20190220035014 3 219 0.0 0.0 0.00 0.00 0.00 66 1032.5
20190220034513 4 221 0.0 0.0 0.00 0.00 0.00 65 1032.7
20190220034012 5 221 0.0 0.0 0.00 0.00 0.00 62 1032.7
20190220033511 5 221 0.0 0.0 0.00 0.00 0.00 62 1032.7
20190220033011 6 274 0.0 0.0 0.00 0.00 0.00 61 1032.7
20190220032511 7 279 0.0 0.0 0.00 0.00 0.00 59 1032.8
20190220032010 8 287 0.0 6.0 0.00 0.00 0.00 59 1032.7
20190220031509 7 271 0.0 6.0 0.00 0.00 0.00 60 1032.7
20190220031007 6 290 0.0 6.0 0.00 0.00 0.00 62 1032.7
20190220030507 6 291 0.0 6.0 0.00 0.00 0.00 63 1032.7
20190220030006 5 251 0.0 3.0 0.00 0.00 0.00 65 1032.7
20190220025506 5 276 0.0 0.0 0.00 0.00 0.00 65 1032.7
20190220025005 5 260 0.0 0.0 0.00 0.00 0.00 64 1032.6
20190220024504 6 261 0.0 0.0 0.00 0.00 0.00 63 1032.6
20190220024004 6 265 0.0 2.0 0.00 0.00 0.00 62 1032.5
20190220023503 6 287 0.0 2.0 0.00 0.00 0.00 62 1032.6
20190220023003 6 274 0.0 0.0 0.00 0.00 0.00 61 1032.6
20190220022502 7 262 0.0 0.0 0.00 0.00 0.00 61 1032.6
20190220022001 7 257 0.0 0.0 0.00 0.00 0.00 61 1032.7
20190220021500 7 262 0.0 0.0 0.00 0.00 0.00 59 1032.6
20190220021000 8 266 0.0 0.0 0.00 0.00 0.00 58 1032.5
20190220020459 9 266 0.0 0.0 0.00 0.00 0.00 56 1032.4
20190220015958 9 297 0.0 0.0 0.00 0.00 0.00 55 1032.5
20190220015458 10 279 0.0 0.0 0.00 0.00 0.00 54 1032.6
20190220014957 10 278 0.0 3.0 0.00 0.00 0.00 54 1032.5
20190220014457 10 281 0.0 3.0 0.00 0.00 0.00 54 1032.4
20190220013956 10 296 0.0 5.0 0.00 0.00 0.00 53 1032.4
20190220013455 11 316 0.0 11.0 0.00 0.00 0.00 52 1032.4
20190220012955 11 303 0.0 14.0 0.00 0.00 0.00 52 1032.4
20190220012454 11 329 5.0 14.0 0.00 0.00 0.00 52 1032.3
20190220011953 11 316 1.0 14.0 0.00 0.00 0.00 52 1032.2
20190220011453 11 312 3.0 17.0 0.00 0.00 0.00 52 1032.2
20190220010952 11 339 5.0 17.0 0.00 0.00 0.00 52 1032.1
20190220010452 11 334 4.0 14.0 0.00 0.00 0.00 52 1032.1
20190220005952 11 311 1.0 11.0 0.00 0.00 0.00 52 1032.1
20190220005450 11 305 0.0 9.0 0.00 0.00 0.00 52 1032.0
20190220004950 11 309 0.0 14.0 0.00 0.00 0.00 51 1031.9
20190220004625 11 295 1.0 14.0 0.00 0.00 0.00 51 1031.9
20190220004450 11 322 0.0 14.0 0.00 0.00 0.00 51 1031.9
20190220003949 11 310 2.0 13.0 0.00 0.00 0.00 51 1031.9
20190220003448 12 290 0.0 13.0 0.00 0.00 0.00 50 1031.8
20190220003057 12 310 0.0 14.0 0.00 0.00 0.00 50 1031.8
20190220002948 12 299 0.0 14.0 0.00 0.00 0.00 50 1031.8
20190220002447 12 339 0.0 14.0 0.00 0.00 0.00 49 1031.7
20190220001946 12 312 3.0 9.0 0.00 0.00 0.00 49 1031.6
20190220001445 12 280 0.0 14.0 0.00 0.00 0.00 49 1031.5
20190220000945 12 310 2.0 14.0 0.00 0.00 0.00 49 1031.4
20190220000447 13 316 1.0 13.0 0.00 0.00 0.00 48 1031.3
20190219235944 13 345 2.0 13.0 0.00 0.00 0.00 47 1031.3
20190219235443 13 291 0.0 11.0 0.00 0.00 0.00 47 1031.2
20190219234943 13 307 0.0 10.0 0.00 0.00 0.00 47 1031.1
20190219234441 13 284 1.0 9.0 0.00 0.00 0.00 46 1030.9
20190219233941 13 287 1.0 8.0 0.00 0.00 0.00 46 1030.9
20190219233440 13 293 0.0 8.0 0.00 0.00 0.00 45 1030.9
20190219233213 14 289 0.0 5.0 0.00 0.00 0.00 45 1030.9
20190219232940 14 272 0.0 5.0 0.00 0.00 0.00 44 1030.8
20190219232439 14 296 0.0 5.0 0.00 0.00 0.00 44 1030.6
20190219231938 14 295 0.0 5.0 0.00 0.00 0.00 44 1030.5
20190219231437 14 289 0.0 5.0 0.00 0.00 0.00 44 1030.4
20190219230936 14 293 0.0 6.0 0.00 0.00 0.00 43 1030.4
20190219230436 14 309 0.0 5.0 0.00 0.00 0.00 43 1030.3
20190219225936 15 275 0.0 16.0 0.00 0.00 0.00 43 1030.3
20190219225434 15 310 2.0 16.0 0.00 0.00 0.00 42 1030.3
20190219224933 15 293 4.0 16.0 0.00 0.00 0.00 42 1030.2
20190219224432 15 295 0.0 9.0 0.00 0.00 0.00 42 1030.2
20190219223932 15 305 0.0 10.0 0.00 0.00 0.00 42 1030.1
20190219223432 15 300 0.0 11.0 0.00 0.00 0.00 41 1030.0
20190219222931 15 298 2.0 11.0 0.00 0.00 0.00 41 1030.0
20190219222430 15 329 0.0 8.0 0.00 0.00 0.00 41 1029.9
20190219221929 16 324 0.0 10.0 0.00 0.00 0.00 41 1029.9
20190219221429 16 305 0.0 13.0 0.00 0.00 0.00 41 1029.9
20190219220928 16 302 1.0 13.0 0.00 0.00 0.00 41 1029.8
20190219220428 16 266 2.0 14.0 0.00 0.00 0.00 41 1029.7
20190219215927 16 258 2.0 16.0 0.00 0.00 0.00 41 1029.7
20190219215427 16 297 3.0 20.0 0.00 0.00 0.00 40 1029.6
20190219214927 17 310 5.0 20.0 0.00 0.00 0.00 40 1029.4
20190219214426 17 345 3.0 18.0 0.00 0.00 0.00 40 1029.4
20190219213925 17 298 5.0 19.0 0.00 0.00 0.00 39 1029.3
20190219213425 17 313 8.0 19.0 0.00 0.00 0.00 39 1029.3
20190219212923 18 303 5.0 19.0 0.00 0.00 0.00 40 1029.2
20190219212422 18 313 1.0 19.0 0.00 0.00 0.00 40 1029.3
20190219211922 18 334 9.0 17.0 0.00 0.00 0.00 39 1029.1
20190219211421 18 323 5.0 21.0 0.00 0.00 0.00 38 1029.1
20190219210921 18 283 8.0 21.0 0.00 0.00 0.00 38 1029.1
20190219210421 19 288 2.0 19.0 0.00 0.00 0.00 38 1029.1
20190219205920 18 322 4.0 19.0 0.00 0.00 0.00 38 1029.1
20190219205419 19 268 4.0 22.0 0.00 0.00 0.00 39 1029.1
20190219204918 19 252 8.0 22.0 0.00 0.00 0.00 39 1029.1
20190219204418 19 276 7.0 23.0 0.00 0.00 0.00 39 1029.0
20190219203917 19 292 6.0 23.0 0.00 0.00 0.00 39 1029.1
20190219203416 19 291 7.0 19.0 0.00 0.00 0.00 40 1029.0
20190219202915 19 285 2.0 19.0 0.00 0.00 0.00 40 1029.1
20190219202415 19 306 5.0 19.0 0.00 0.00 0.00 40 1029.1
20190219201914 19 283 6.0 19.0 0.00 0.00 0.00 40 1029.1
20190219201414 19 316 6.0 19.0 0.00 0.00 0.00 40 1029.2
20190219200914 19 295 4.0 18.0 0.00 0.00 0.00 41 1029.1
20190219200412 19 310 6.0 18.0 0.00 0.00 0.00 40 1029.2
20190219195912 19 304 4.0 17.0 0.00 0.00 0.00 41 1029.0
20190219195411 19 291 7.0 18.0 0.00 0.00 0.00 40 1029.0
20190219194910 19 305 9.0 18.0 0.00 0.00 0.00 40 1028.9
20190219194410 19 317 2.0 16.0 0.00 0.00 0.00 41 1029.0
20190219193909 19 353 4.0 18.0 0.00 0.00 0.00 41 1028.9
20190219193408 19 289 10.0 18.0 0.00 0.00 0.00 41 1029.0
20190219193148 19 298 7.0 18.0 0.00 0.00 0.00 42 1028.9
20190219192908 19 314 2.0 19.0 0.00 0.00 0.00 42 1028.9
20190219192407 18 329 8.0 19.0 0.00 0.00 0.00 42 1029.0
20190219191907 18 300 7.0 19.0 0.00 0.00 0.00 42 1028.9
20190219191406 18 339 11.0 19.0 0.00 0.00 0.00 41 1029.1
20190219190905 19 305 7.0 16.0 0.00 0.00 0.00 42 1028.9
20190219190404 19 296 1.0 17.0 0.00 0.00 0.00 42 1028.8
20190219185903 18 324 6.0 17.0 0.00 0.00 0.00 42 1028.9
20190219185402 19 293 3.0 15.0 0.00 0.00 0.00 42 1029.1
20190219184902 18 291 2.0 15.0 0.00 0.00 0.00 42 1029.0
20190219184401 18 316 4.0 13.0 0.00 0.00 0.00 44 1029.0
20190219183900 18 302 2.0 14.0 0.00 0.00 0.00 43 1029.0
20190219183400 18 262 5.0 14.0 0.00 0.00 0.00 42 1029.0
20190219182859 18 306 2.0 15.0 0.00 0.00 0.00 43 1029.2
20190219182359 18 265 4.0 15.0 0.00 0.00 0.00 42 1029.1
20190219181859 18 252 1.0 18.0 0.00 0.00 0.00 43 1029.2
20190219181358 18 281 0.0 18.0 0.00 0.00 0.00 44 1029.3
20190219180857 18 258 2.0 16.0 0.00 0.00 0.00 44 1029.2
20190219180357 18 313 5.0 16.0 0.00 0.00 0.00 45 1029.2
20190219180140 17 301 1.0 21.0 0.00 0.00 0.00 44 1029.3
20190219175856 17 233 7.0 21.0 0.00 0.00 0.00 43 1029.3
20190219175355 17 346 6.0 21.0 0.00 0.00 0.00 44 1029.3
20190219174854 17 266 1.0 15.0 0.00 0.00 0.00 45 1029.3
20190219174616 17 339 3.0 21.0 0.00 0.00 0.00 45 1029.3
20190219174354 17 322 5.0 21.0 0.00 0.00 0.00 45 1029.3
20190219173854 16 312 8.0 21.0 0.00 0.00 0.00 46 1029.5
20190219173354 16 311 10.0 21.0 0.00 0.00 0.00 45 1029.5
20190219173034 16 295 9.0 21.0 0.00 0.00 0.00 45 1029.4
20190219172853 17 329 9.0 21.0 0.00 0.00 0.00 45 1029.5
20190219172352 16 296 3.0 17.0 0.00 0.00 0.00 46 1029.4
20190219171851 16 295 4.0 17.0 0.00 0.00 0.00 46 1029.5
20190219171526 16 280 2.0 17.0 0.00 0.00 0.00 47 1029.5
20190219171350 16 329 2.0 17.0 0.00 0.00 0.00 46 1029.5
20190219170850 16 295 6.0 19.0 0.00 0.00 0.00 47 1029.4
20190219170349 16 329 11.0 19.0 0.00 0.00 0.00 47 1029.5
20190219165848 16 299 8.0 19.0 0.00 0.00 0.00 47 1029.4
20190219165347 16 276 9.0 18.0 0.00 0.00 0.00 48 1029.3
20190219164847 15 320 8.0 23.0 0.00 0.00 0.00 50 1029.2
20190219164346 15 323 11.0 23.0 0.00 0.00 0.00 49 1029.2
20190219163846 15 329 6.0 20.0 0.00 0.00 0.00 50 1029.3
20190219163345 15 314 7.0 23.0 0.00 0.00 0.00 50 1029.4
20190219162844 15 339 9.0 23.0 0.00 0.00 0.00 50 1029.4
20190219162343 14 279 5.0 20.0 0.00 0.00 0.00 50 1029.5
20190219161843 14 290 10.0 20.0 0.00 0.00 0.00 50 1029.4
20190219161343 15 310 5.0 20.0 0.00 0.00 0.00 52 1029.5
20190219160842 14 259 8.0 20.0 0.00 0.00 0.00 51 1029.6